FENGYUN 1C DEB, 35104

Orbit data source: Space-Track

FENGYUN 1C DEB, 35104 is space debris in SSO originally from a launch on Mon, 10 May 1999 UTC launched from the Taiyaun Space Center, China (TSC). Fengyun 1C debris stems from the Chinese weather satellite Fengyun-1C, which was intentionally destroyed by a Chinese anti-satellite missile in 2007. This event dramatically increased the amount of space debris, with thousands of trackable fragments posing hazards to satellites and human spaceflight. The Fengyun 1C debris cloud has become a focal point in discussions about space sustainability and the need for international regulations to prevent the creation of new debris.

Loading next visibility...
Identifier
35104, 1999-025DKG
Orbit
SSO
Country
Flag of CNCN / PRC
Related business
Manufacturer
Unknown
Mission
Spacecraft
Bus & Motor
Unknown
Mass
Unknown
Launch date (UTC)
1999-05-10 (27 years ago)
Launch vehicle
Unknown
Launch site
Taiyaun Space Center, China (TSC)
Object type
Payload
Rocket body
Debris
Shape & HBR
Unknown shape, 0.1 m
Radar Cross Section
Small (<0.1 m²)

Expand to show TLE details & history
Last TLE update: 21 hours ago

TLE from 21 hours ago
0 FENGYUN 1C DEB
1 35104U 99025DKG 25353.29569498  .00000619  00000-0  30745-3 0  9996
2 35104  98.5954 359.8138 0031435 122.4536 253.9667 14.20339512898600
Epoch: 2025-12-19T07:05Z
TLE epoch observation values (Epoch: 2025-12-19T07:05:48.046Z)
Latitude
15.86957°
Longitude
162.77496°
Altitude
832.771 km
Speed
7.435 km/s
True Right ascension
23h 49m 27s
True Declination
15° 46' 49"
Sunlit
Object was in daylight at epoch
Visualization orbit readout
Latitude
Unknown
Longitude
Unknown
Altitude
Unknown
Speed
Unknown
Apparent Right ascension
Unknown
Apparent Declination
Unknown
Sunlit
N/A
Visualization observer readout
Local Sidereal Time
03:05:34
Azimuth
Unknown
Elevation
Unknown
Doppler factor
Unknown
Orbital elements
Apogee altitude
843.989 km
Perigee altitude
798.726 km
Semi-major axis
7,199.494 km
Eccentricity
0.00314
Inclination
98.5954°
RAAN
359.8138°
Arg. of periapsis
122.4536°
True anomaly
253.62087°
Mean anomaly
253.9667°
Eccentric anomaly
253.79375°
Mean motion
3.55296 °/min
Orbital period
101.32 mins
BSTAR
0.00030745
Loading maneuver chart data...
Computing Atmospheric mass density...

Documentation

Showing up to 5 results
|